| time (UTC) | temp C | wind direction | speed KPH | gust KPH | rain 1hr cm | rain 24hr cm | rain mn cm | humidity % | barometer mb |
| 20260505223104 | 23 | 77 | 3.2 | 4.8 | 0.00 | 0.00 | 0.00 | 80 | 1014.8 |
| 20260505222505 | 23 | 294 | 3.2 | 4.8 | 0.00 | 0.00 | 0.00 | 81 | 1014.8 |
| 20260505221905 | 22 | 279 | 1.6 | 4.8 | 0.00 | 0.00 | 0.00 | 84 | 1014.8 |
| 20260505221305 | 22 | 308 | 0.0 | 3.2 | 0.00 | 0.00 | 0.00 | 84 | 1014.8 |
| 20260505220704 | 21 | 294 | 1.6 | 3.2 | 0.00 | 0.00 | 0.00 | 88 | 1014.8 |
| 20260505215504 | 20 | 297 | 3.2 | 6.4 | 0.00 | 0.00 | 0.00 | 92 | 1014.9 |
| 20260505214905 | 20 | 285 | 3.2 | 3.2 | 0.00 | 0.00 | 0.00 | 93 | 1014.8 |
| 20260505214305 | 19 | 267 | 3.2 | 4.8 | 0.00 | 0.00 | 0.00 | 96 | 1014.8 |
| 20260505213705 | 18 | 268 | 3.2 | 4.8 | 0.00 | 0.00 | 0.00 | 98 | 1014.8 |
| 20260505212504 | 18 | 255 | 3.2 | 3.2 | 0.00 | 0.00 | 0.00 | 98 | 1014.5 |
| 20260505211905 | 18 | 275 | 3.2 | 4.8 | 0.00 | 0.00 | 0.00 | 98 | 1014.5 |
| 20260505211304 | 18 | 257 | 3.2 | 8.0 | 0.00 | 0.00 | 0.00 | 98 | 1014.5 |
| 20260505205505 | 18 | 238 | 3.2 | 8.0 | 0.00 | 0.00 | 0.00 | 98 | 1014.2 |
| 20260505204305 | 18 | 270 | 3.2 | 4.8 | 0.00 | 0.00 | 0.00 | 98 | 1014.0 |
| 20260505203704 | 18 | 267 | 3.2 | 4.8 | 0.00 | 0.00 | 0.00 | 98 | 1014.0 |
| 20260505203104 | 18 | 269 | 1.6 | 4.8 | 0.00 | 0.00 | 0.00 | 99 | 1014.0 |
| 20260505202505 | 18 | 262 | 1.6 | 4.8 | 0.00 | 0.00 | 0.00 | 98 | 1013.9 |
| 20260505201305 | 18 | 271 | 3.2 | 4.8 | 0.00 | 0.00 | 0.00 | 98 | 1013.8 |
| 20260505195505 | 18 | 262 | 3.2 | 3.2 | 0.00 | 0.00 | 0.00 | 99 | 1013.8 |
| 20260505194305 | 17 | 253 | 3.2 | 4.8 | 0.00 | 0.00 | 0.00 | 99 | 1013.7 |
| 20260505193705 | 17 | 255 | 3.2 | 4.8 | 0.00 | 0.00 | 0.00 | 99 | 1013.7 |
| 20260505192505 | 17 | 274 | 3.2 | 4.8 | 0.00 | 0.00 | 0.00 | 99 | 1013.4 |
| 20260505191904 | 17 | 258 | 3.2 | 4.8 | 0.00 | 0.00 | 0.00 | 99 | 1013.2 |
| 20260505191305 | 17 | 257 | 1.6 | 4.8 | 0.00 | 0.00 | 0.00 | 99 | 1013.2 |
| 20260505190705 | 17 | 259 | 3.2 | 4.8 | 0.00 | 0.00 | 0.00 | 99 | 1013.3 |
| 20260505190104 | 17 | 276 | 3.2 | 4.8 | 0.00 | 0.00 | 0.00 | 99 | 1013.2 |
| 20260505185504 | 17 | 265 | 1.6 | 4.8 | 0.00 | 0.00 | 0.00 | 99 | 1013.2 |
| 20260505184904 | 17 | 247 | 1.6 | 3.2 | 0.00 | 0.00 | 0.00 | 99 | 1013.2 |
| 20260505184305 | 17 | 250 | 1.6 | 3.2 | 0.00 | 0.00 | 0.00 | 99 | 1013.0 |
| 20260505183704 | 17 | 273 | 1.6 | 3.2 | 0.00 | 0.00 | 0.00 | 99 | 1013.0 |
| 20260505183105 | 17 | 271 | 1.6 | 4.8 | 0.00 | 0.00 | 0.00 | 99 | 1013.1 |
| 20260505182505 | 17 | 281 | 1.6 | 4.8 | 0.00 | 0.00 | 0.00 | 99 | 1013.1 |
| 20260505181305 | 17 | 253 | 3.2 | 4.8 | 0.00 | 0.00 | 0.00 | 99 | 1013.2 |
| 20260505180705 | 17 | 226 | 1.6 | 3.2 | 0.00 | 0.00 | 0.00 | 99 | 1013.3 |
| 20260505180105 | 17 | 171 | 1.6 | 3.2 | 0.00 | 0.00 | 0.00 | 99 | 1013.2 |
| 20260505175505 | 17 | 160 | 3.2 | 3.2 | 0.00 | 0.00 | 0.00 | 99 | 1013.0 |
| 20260505174905 | 17 | 168 | 3.2 | 4.8 | 0.00 | 0.00 | 0.00 | 99 | 1013.2 |
| 20260505173105 | 17 | 102 | 1.6 | 3.2 | 0.00 | 0.00 | 0.00 | 99 | 1013.2 |
| 20260505172505 | 17 | 94 | 1.6 | 3.2 | 0.00 | 0.00 | 0.00 | 99 | 1013.4 |
| 20260505171905 | 17 | 128 | 1.6 | 3.2 | 0.00 | 0.00 | 0.00 | 99 | 1013.5 |
| 20260505170105 | 17 | 147 | 3.2 | 4.8 | 0.00 | 0.00 | 0.00 | 99 | 1013.3 |
| 20260505165505 | 17 | 107 | 3.2 | 4.8 | 0.00 | 0.00 | 0.00 | 99 | 1013.2 |
| 20260505164905 | 17 | 240 | 1.6 | 3.2 | 0.00 | 0.00 | 0.00 | 99 | 1013.4 |
| 20260505163705 | 18 | 205 | 3.2 | 4.8 | 0.00 | 0.00 | 0.00 | 99 | 1013.5 |
| 20260505163105 | 18 | 248 | 1.6 | 4.8 | 0.00 | 0.00 | 0.00 | 99 | 1013.5 |
| 20260505162504 | 18 | 272 | 1.6 | 4.8 | 0.00 | 0.00 | 0.00 | 99 | 1013.5 |
| 20260505161905 | 18 | 190 | 3.2 | 6.4 | 0.00 | 0.00 | 0.00 | 99 | 1013.6 |
| 20260505161304 | 18 | 193 | 3.2 | 6.4 | 0.00 | 0.00 | 0.00 | 98 | 1013.7 |
| 20260505160705 | 18 | 192 | 3.2 | 4.8 | 0.00 | 0.00 | 0.00 | 98 | 1013.7 |
| 20260505160104 | 18 | 113 | 3.2 | 6.4 | 0.00 | 0.00 | 0.00 | 99 | 1013.8 |
| 20260505153104 | 19 | 254 | 3.2 | 4.8 | 0.00 | 0.00 | 0.00 | 96 | 1013.9 |
| 20260505152505 | 19 | 266 | 3.2 | 4.8 | 0.00 | 0.00 | 0.00 | 94 | 1014.0 |
| 20260505151905 | 20 | 257 | 1.6 | 4.8 | 0.00 | 0.00 | 0.00 | 93 | 1014.1 |
| 20260505151304 | 20 | 246 | 3.2 | 4.8 | 0.00 | 0.00 | 0.00 | 93 | 1014.2 |
| 20260505150705 | 20 | 245 | 3.2 | 4.8 | 0.00 | 0.00 | 0.00 | 92 | 1014.2 |
| 20260505150104 | 20 | 286 | 1.6 | 4.8 | 0.00 | 0.00 | 0.00 | 93 | 1014.2 |
| 20260505140104 | 20 | 280 | 3.2 | 4.8 | 0.00 | 0.00 | 0.00 | 90 | 1014.8 |
| 20260505130104 | 20 | 294 | 3.2 | 4.8 | 0.00 | 0.00 | 0.00 | 87 | 1015.2 |
| 20260505124905 | 20 | 296 | 3.2 | 4.8 | 0.00 | 0.00 | 0.00 | 87 | 1015.3 |
| 20260505124305 | 20 | 296 | 3.2 | 4.8 | 0.00 | 0.00 | 0.00 | 87 | 1015.4 |
| 20260505123705 | 20 | 280 | 1.6 | 3.2 | 0.00 | 0.00 | 0.00 | 87 | 1015.3 |
| 20260505123104 | 20 | 266 | 3.2 | 3.2 | 0.00 | 0.00 | 0.00 | 88 | 1015.5 |
| 20260505122504 | 20 | 275 | 3.2 | 4.8 | 0.00 | 0.00 | 0.00 | 88 | 1015.4 |
| 20260505121904 | 20 | 289 | 4.8 | 6.4 | 0.00 | 0.00 | 0.00 | 88 | 1015.5 |
| 20260505121304 | 20 | 289 | 3.2 | 6.4 | 0.00 | 0.00 | 0.00 | 88 | 1015.5 |
| 20260505114305 | 20 | 291 | 3.2 | 4.8 | 0.00 | 0.00 | 0.00 | 89 | 1015.5 |
| 20260505111904 | 20 | 285 | 24.1 | 27.4 | 0.00 | 0.00 | 0.00 | 90 | 1015.7 |
| 20260505111304 | 19 | 276 | 24.1 | 27.4 | 0.00 | 0.00 | 0.00 | 90 | 1015.7 |
| 20260505110704 | 19 | 269 | 24.1 | 27.4 | 0.00 | 0.00 | 0.00 | 92 | 1015.7 |
| 20260505110105 | 19 | 285 | 24.1 | 27.4 | 0.00 | 0.00 | 0.00 | 92 | 1015.8 |
| 20260505101905 | 18 | 278 | 25.7 | 29.0 | 0.00 | 0.00 | 0.00 | 93 | 1015.5 |
| 20260505101305 | 18 | 280 | 25.7 | 29.0 | 0.00 | 0.00 | 0.00 | 93 | 1015.5 |
| 20260505100705 | 18 | 262 | 25.7 | 29.0 | 0.00 | 0.00 | 0.00 | 93 | 1015.6 |
| 20260505100105 | 18 | 153 | 24.1 | 25.7 | 0.00 | 0.00 | 0.00 | 93 | 1015.4 |
| 20260505095504 | 18 | 125 | 24.1 | 25.7 | 0.00 | 0.00 | 0.00 | 93 | 1015.2 |
| 20260505093705 | 18 | 130 | 24.1 | 24.1 | 0.00 | 0.00 | 0.00 | 92 | 1015.0 |
| 20260505093105 | 18 | 130 | 24.1 | 25.7 | 0.00 | 0.00 | 0.00 | 89 | 1015.0 |
| 20260505092505 | 18 | 114 | 24.1 | 25.7 | 0.00 | 0.00 | 0.00 | 88 | 1014.8 |
| 20260505091904 | 20 | 103 | 22.5 | 24.1 | 0.00 | 0.00 | 0.00 | 85 | 1014.7 |
| 20260505091304 | 20 | 114 | 22.5 | 24.1 | 0.00 | 0.00 | 0.00 | 86 | 1014.7 |
| 20260505084904 | 20 | 109 | 20.9 | 24.1 | 0.00 | 0.00 | 0.00 | 84 | 1014.3 |
| 20260505084304 | 20 | 108 | 22.5 | 24.1 | 0.00 | 0.00 | 0.00 | 85 | 1014.2 |
| 20260505083705 | 20 | 102 | 22.5 | 24.1 | 0.00 | 0.00 | 0.00 | 84 | 1014.2 |
| 20260505083105 | 20 | 97 | 22.5 | 24.1 | 0.00 | 0.00 | 0.00 | 82 | 1014.1 |
| 20260505082505 | 21 | 94 | 22.5 | 24.1 | 0.00 | 0.00 | 0.00 | 81 | 1014.0 |
| 20260505081305 | 21 | 102 | 22.5 | 25.7 | 0.00 | 0.00 | 0.00 | 77 | 1013.9 |
| 20260505080705 | 21 | 99 | 20.9 | 24.1 | 0.00 | 0.00 | 0.00 | 77 | 1013.8 |
| 20260505080104 | 22 | 117 | 20.9 | 25.7 | 0.00 | 0.00 | 0.00 | 75 | 1013.8 |
| 20260505075505 | 22 | 115 | 20.9 | 25.7 | 0.00 | 0.00 | 0.00 | 73 | 1013.7 |
| 20260505074905 | 22 | 92 | 20.9 | 22.5 | 0.00 | 0.00 | 0.00 | 73 | 1013.5 |
| 20260505074304 | 23 | 107 | 20.9 | 22.5 | 0.00 | 0.00 | 0.00 | 72 | 1013.5 |
| 20260505072505 | 23 | 117 | 20.9 | 24.1 | 0.00 | 0.00 | 0.00 | 70 | 1013.2 |
| 20260505071305 | 23 | 108 | 20.9 | 24.1 | 0.00 | 0.00 | 0.00 | 69 | 1013.2 |
| 20260505065504 | 23 | 109 | 19.3 | 25.7 | 0.00 | 0.00 | 0.00 | 68 | 1013.0 |
| 20260505064904 | 24 | 103 | 19.3 | 24.1 | 0.00 | 0.00 | 0.00 | 68 | 1013.0 |
| 20260505064304 | 24 | 110 | 20.9 | 27.4 | 0.00 | 0.00 | 0.00 | 68 | 1012.9 |
| 20260505063704 | 25 | 100 | 20.9 | 29.0 | 0.00 | 0.00 | 0.00 | 66 | 1012.8 |
| 20260505062505 | 25 | 97 | 20.9 | 29.0 | 0.00 | 0.00 | 0.00 | 66 | 1012.8 |
| 20260505061905 | 26 | 99 | 20.9 | 30.6 | 0.00 | 0.00 | 0.00 | 65 | 1012.8 |
| 20260505060705 | 26 | 97 | 22.5 | 33.8 | 0.00 | 0.00 | 0.00 | 68 | 1012.7 |
| 20260505060104 | 26 | 105 | 20.9 | 30.6 | 0.00 | 0.00 | 0.00 | 66 | 1012.6 |
| 20260505055505 | 27 | 103 | 20.9 | 30.6 | 0.00 | 0.00 | 0.00 | 64 | 1012.6 |
| 20260505054905 | 27 | 102 | 22.5 | 27.4 | 0.00 | 0.00 | 0.00 | 62 | 1012.5 |
| 20260505054305 | 27 | 95 | 24.1 | 29.0 | 0.00 | 0.00 | 0.00 | 62 | 1012.5 |
| 20260505053705 | 28 | 80 | 24.1 | 29.0 | 0.00 | 0.00 | 0.00 | 61 | 1012.4 |
| 20260505053104 | 28 | 83 | 22.5 | 25.7 | 0.00 | 0.00 | 0.00 | 59 | 1012.4 |
| 20260505052505 | 28 | 84 | 22.5 | 27.4 | 0.00 | 0.00 | 0.00 | 54 | 1012.2 |
| 20260505051305 | 29 | 89 | 22.5 | 27.4 | 0.00 | 0.00 | 0.00 | 52 | 1012.2 |
| 20260505050704 | 29 | 101 | 22.5 | 27.4 | 0.00 | 0.00 | 0.00 | 50 | 1012.2 |
| 20260505050105 | 29 | 97 | 22.5 | 25.7 | 0.00 | 0.00 | 0.00 | 50 | 1012.1 |
| 20260505041305 | 29 | 91 | 25.7 | 33.8 | 0.00 | 0.00 | 0.00 | 49 | 1012.5 |
| 20260505040705 | 29 | 100 | 25.7 | 33.8 | 0.00 | 0.00 | 0.00 | 47 | 1012.4 |
| 20260505040104 | 30 | 101 | 27.4 | 33.8 | 0.00 | 0.00 | 0.00 | 45 | 1012.5 |
| 20260505035505 | 30 | 106 | 27.4 | 33.8 | 0.00 | 0.00 | 0.00 | 44 | 1012.6 |
| 20260505034905 | 30 | 105 | 25.7 | 32.2 | 0.00 | 0.00 | 0.00 | 44 | 1012.6 |
| 20260505034305 | 30 | 102 | 24.1 | 32.2 | 0.00 | 0.00 | 0.00 | 44 | 1012.8 |
| 20260505033705 | 29 | 104 | 22.5 | 32.2 | 0.00 | 0.00 | 0.00 | 45 | 1012.8 |
| 20260505033105 | 29 | 94 | 25.7 | 32.2 | 0.00 | 0.00 | 0.00 | 44 | 1012.8 |
| 20260505031905 | 28 | 136 | 24.1 | 29.0 | 0.00 | 0.00 | 0.00 | 45 | 1012.8 |
| 20260505031305 | 29 | 144 | 24.1 | 29.0 | 0.00 | 0.00 | 0.00 | 46 | 1012.9 |
| 20260505030705 | 29 | 99 | 19.3 | 29.0 | 0.00 | 0.00 | 0.00 | 48 | 1013.0 |
| 20260505030104 | 29 | 83 | 20.9 | 24.1 | 0.00 | 0.00 | 0.00 | 47 | 1012.9 |
| 20260505025505 | 29 | 122 | 22.5 | 27.4 | 0.00 | 0.00 | 0.00 | 49 | 1013.2 |
| 20260505023105 | 28 | 101 | 20.9 | 25.7 | 0.00 | 0.00 | 0.00 | 46 | 1013.8 |
| 20260505022505 | 28 | 94 | 20.9 | 29.0 | 0.00 | 0.00 | 0.00 | 49 | 1013.8 |
| 20260505021904 | 28 | 105 | 20.9 | 29.0 | 0.00 | 0.00 | 0.00 | 51 | 1013.8 |
| 20260505021304 | 28 | 100 | 20.9 | 25.7 | 0.00 | 0.00 | 0.00 | 52 | 1014.0 |
| 20260505020704 | 28 | 75 | 19.3 | 25.7 | 0.00 | 0.00 | 0.00 | 51 | 1014.2 |
| 20260505015505 | 28 | 87 | 22.5 | 29.0 | 0.00 | 0.00 | 0.00 | 52 | 1014.2 |
| 20260505014904 | 28 | 79 | 22.5 | 27.4 | 0.00 | 0.00 | 0.00 | 54 | 1014.1 |
| 20260505014304 | 27 | 120 | 22.5 | 27.4 | 0.00 | 0.00 | 0.00 | 54 | 1014.3 |
| 20260505013705 | 27 | 110 | 22.5 | 27.4 | 0.00 | 0.00 | 0.00 | 55 | 1014.5 |
| 20260505013105 | 27 | 116 | 20.9 | 27.4 | 0.00 | 0.00 | 0.00 | 56 | 1014.5 |
| 20260505012505 | 26 | 109 | 19.3 | 20.9 | 0.00 | 0.00 | 0.00 | 59 | 1014.7 |
| 20260505011305 | 27 | 91 | 22.5 | 27.4 | 0.00 | 0.00 | 0.00 | 58 | 1014.8 |
| 20260505010705 | 27 | 93 | 22.5 | 30.6 | 0.00 | 0.00 | 0.00 | 58 | 1014.8 |
| 20260505010104 | 26 | 98 | 22.5 | 30.6 | 0.00 | 0.00 | 0.00 | 61 | 1014.9 |
| 20260505005505 | 27 | 96 | 20.9 | 25.7 | 0.00 | 0.00 | 0.00 | 59 | 1014.9 |
| 20260505004905 | 27 | 98 | 22.5 | 27.4 | 0.00 | 0.00 | 0.00 | 59 | 1015.0 |
| 20260505004305 | 27 | 104 | 22.5 | 27.4 | 0.00 | 0.00 | 0.00 | 62 | 1015.2 |
| 20260505003704 | 26 | 100 | 24.1 | 27.4 | 0.00 | 0.00 | 0.00 | 63 | 1015.7 |
| 20260505003105 | 26 | 102 | 24.1 | 27.4 | 0.00 | 0.00 | 0.00 | 62 | 1015.5 |
| 20260505002504 | 26 | 98 | 22.5 | 27.4 | 0.00 | 0.00 | 0.00 | 65 | 1015.4 |
| 20260505001905 | 26 | 114 | 22.5 | 27.4 | 0.00 | 0.00 | 0.00 | 67 | 1015.5 |
| 20260505000105 | 25 | 101 | 20.9 | 24.1 | 0.00 | 0.00 | 0.00 | 68 | 1015.7 |
| 20260504235504 | 26 | 115 | 20.9 | 22.5 | 0.00 | 0.00 | 0.00 | 69 | 1015.8 |
| 20260504234904 | 26 | 79 | 20.9 | 27.4 | 0.00 | 0.00 | 0.00 | 69 | 1015.8 |
| 20260504233704 | 25 | 100 | 20.9 | 24.1 | 0.00 | 0.00 | 0.00 | 69 | 1015.8 |
| 20260504233105 | 25 | 65 | 22.5 | 27.4 | 0.00 | 0.00 | 0.00 | 70 | 1015.9 |
| 20260504232504 | 25 | 52 | 22.5 | 27.4 | 0.00 | 0.00 | 0.00 | 71 | 1015.8 |
| 20260504231905 | 25 | 358 | 20.9 | 25.7 | 0.00 | 0.00 | 0.00 | 73 | 1015.9 |
| 20260504231305 | 24 | 2 | 20.9 | 25.7 | 0.00 | 0.00 | 0.00 | 76 | 1015.8 |
| 20260504230705 | 23 | 329 | 19.3 | 25.7 | 0.00 | 0.00 | 0.00 | 77 | 1015.8 |
| 20260504230105 | 23 | 305 | 19.3 | 20.9 | 0.00 | 0.00 | 0.00 | 81 | 1015.8 |
| 20260504225505 | 23 | 305 | 19.3 | 22.5 | 0.00 | 0.00 | 0.00 | 82 | 1015.8 |
| 20260504224904 | 22 | 317 | 20.9 | 22.5 | 0.00 | 0.00 | 0.00 | 83 | 1015.8 |
| 20260504224304 | 22 | 299 | 20.9 | 22.5 | 0.00 | 0.00 | 0.00 | 83 | 1015.8 |